This is the latest recevied weather packets stored in our database for station/object KC5TIL-3. If no packets are shown the sender has not sent any weather packets the latest 10 day(s).
| Time | Temp. | Humidity | Pressure | Rain* | Wind** | Luminosity | Snow |
|---|---|---|---|---|---|---|---|
| 1777808613 | 14.44° C | 40% | 1017.8 hPa | 0 mm | 3.13 m/s, 225° | - | - |
| 1777808312 | 14.44° C | 39% | 1017.8 hPa | 0 mm | 1.79 m/s, 189° | - | - |
| 1777808014 | 14.44° C | 39% | 1017.8 hPa | 0 mm | 3.13 m/s, 214° | - | - |
| 1777807716 | 14.44° C | 38% | 1017.8 hPa | 0 mm | 3.13 m/s, 211° | - | - |
| 1777807414 | 14.44° C | 37% | 1017.8 hPa | 0 mm | 4.02 m/s, 202° | - | - |
| 1777807116 | 14.44° C | 37% | 1017.8 hPa | 0 mm | 4.47 m/s, 198° | - | - |
| 1777806818 | 14.44° C | 37% | 1017.8 hPa | 0 mm | 2.68 m/s, 234° | - | - |
| 1777806517 | 15° C | 36% | 1017.8 hPa | 0 mm | 2.68 m/s, 172° | - | - |
| 1777806214 | 15° C | 36% | 1017.8 hPa | 0 mm | 2.68 m/s, 214° | - | - |
| 1777805916 | 15° C | 36% | 1017.8 hPa | 0 mm | 3.13 m/s, 215° | - | - |
| 1777805610 | 15° C | 36% | 1017.8 hPa | 0 mm | 3.13 m/s, 213° | - | - |
| 1777805312 | 15° C | 36% | 1017.8 hPa | 0 mm | 3.58 m/s, 173° | - | - |
| 1777804713 | 15° C | 36% | 1017.8 hPa | 0 mm | 3.13 m/s, 202° | - | - |
| 1777804415 | 15° C | 36% | 1017.8 hPa | 0 mm | 3.13 m/s, 243° | - | - |
| 1777803815 | 15° C | 36% | 1017.8 hPa | 0 mm | 3.13 m/s, 223° | - | - |
| 1777803518 | 15° C | 36% | 1017.8 hPa | 0 mm | 3.13 m/s, 190° | - | - |
| 1777803215 | 15° C | 36% | 1017.8 hPa | 0 mm | 3.13 m/s, 212° | - | - |
| 1777802913 | 15° C | 36% | 1017.8 hPa | 0 mm | 3.13 m/s, 217° | - | - |
| 1777802615 | 15° C | 36% | 1017.8 hPa | 0 mm | 2.68 m/s, 220° | - | - |
| 1777802317 | 15° C | 36% | 1017.8 hPa | 0 mm | 2.68 m/s, 217° | - | - |
| 1777802015 | 15° C | 36% | 1017.8 hPa | 0 mm | 2.68 m/s, 216° | - | - |
| 1777801419 | 15° C | 35% | 1017.8 hPa | 0 mm | 3.13 m/s, 192° | - | - |
| 1777801118 | 15° C | 35% | 1017.8 hPa | 0 mm | 2.68 m/s, 207° | - | - |
| 1777800819 | 15° C | 35% | 1017.8 hPa | 0 mm | 3.13 m/s, 199° | - | - |
| 1777800521 | 15.56° C | 35% | 1017.8 hPa | 0 mm | 3.13 m/s, 146° | - | - |
* Rain latest hour (hover to see other rain measurements)
** Current wind speed in m/s (hover to see current wind gust speed)